EW6425 Weather Reports


Display with metric or nautical units.
time (UTC)temp
F
wind
direction
speed
MPH
gust
MPH
rain 1hr
in
rain 24hr
in
rain mn
in
humidity
%
barometer
mb
20260504081544 37 242 11.0 34.0 0.03 0.49 0.17 93 980.2
20260504050014 39 309 5.0 11.0 0.03 0.35 0.04 93 975.3
20260504044507 39 330 2.0 6.0 0.04 0.36 0.04 93 975.1
20260504043005 39 355 3.0 8.0 0.02 0.35 0.02 93 975.2
20260504041505 39 47 3.0 10.0 0.02 0.34 0.02 92 975.3
20260504040002 39 64 3.0 10.0 0.01 0.33 0.01 92 975.5
20260504034559 39 53 4.0 11.0 0.00 0.32 0.00 92 975.9
20260504033102 39 64 5.0 13.0 0.01 0.32 0.00 92 976.1
20260504031555 39 100 6.0 15.0 0.01 0.32 0.00 92 976.8
20260504030051 40 86 5.0 19.0 0.01 0.32 0.00 92 977.3
20260504024552 40 109 7.0 13.0 0.01 0.32 0.32 92 978.1
20260504023046 41 126 9.0 20.0 0.00 0.31 0.31 92 978.5
20260504021544 41 46 8.0 20.0 0.00 0.31 0.31 92 978.6
20260504020122 41 74 11.0 26.0 0.00 0.31 0.31 93 979.0
20260504014555 40 71 8.0 16.0 0.00 0.31 0.31 92 980.0
20260504013045 40 70 7.0 15.0 0.00 0.31 0.31 92 980.9
20260504011534 40 71 11.0 20.0 0.01 0.31 0.31 92 981.3
20260504010031 40 65 12.0 26.0 0.01 0.31 0.31 92 982.2
20260504004533 40 64 11.0 26.0 0.01 0.31 0.31 92 983.1
20260504003027 40 78 12.0 21.0 0.01 0.31 0.31 92 983.9
20260504001525 40 66 12.0 27.0 0.01 0.31 0.31 92 984.2
20260504000023 41 66 15.0 28.0 0.04 0.31 0.31 92 984.8
20260503234522 40 84 13.0 28.0 0.05 0.31 0.31 92 985.7
20260503233021 40 71 14.0 27.0 0.06 0.31 0.31 92 986.4
20260503231516 39 83 13.0 28.0 0.06 0.30 0.30 92 987.6
20260503230013 39 82 15.0 26.0 0.03 0.27 0.27 92 988.7
20260503224508 39 83 11.0 29.0 0.05 0.26 0.26 91 989.6
20260503223006 39 63 16.0 29.0 0.08 0.25 0.25 92 990.4
20260503221605 39 90 12.0 21.0 0.09 0.24 0.24 91 991.6
20260503220059 39 92 11.0 22.0 0.09 0.24 0.24 91 992.6
20260503214559 39 76 12.0 22.0 0.08 0.21 0.21 91 993.7
20260503213053 40 74 7.0 18.0 0.06 0.17 0.17 91 994.3
20260503211650 40 59 9.0 22.0 0.04 0.15 0.15 90 994.5
20260503210051 40 69 12.0 26.0 0.04 0.14 0.14 90 994.6
20260503204548 42 78 15.0 25.0 0.04 0.13 0.13 89 995.0
20260503203103 43 77 11.0 15.0 0.06 0.12 0.12 89 996.0
20260503201543 43 94 8.0 14.0 0.06 0.11 0.11 89 996.4
20260503200040 42 77 6.0 13.0 0.06 0.10 0.10 88 997.1
20260503194542 42 65 7.0 13.0 0.04 0.09 0.09 87 998.0
20260503193038 43 78 9.0 13.0 0.03 0.06 0.06 86 998.8
20260503191536 42 5 11.0 20.0 0.04 0.05 0.05 86 999.0
20260503190037 42 69 11.0 18.0 0.04 0.05 0.05 86 1000.2
20260503184525 43 76 7.0 16.0 0.04 0.05 0.05 83 1001.6
20260503183019 44 58 8.0 15.0 0.02 0.03 0.03 79 1002.7
20260503181517 45 64 6.0 17.0 0.00 0.01 0.01 80 1003.4
20260503180013 46 74 7.0 14.0 0.00 0.01 0.01 79 1004.8
20260503174510 47 107 6.0 15.0 0.00 0.01 0.01 77 1005.6
20260503173008 48 91 7.0 15.0 0.00 0.01 0.01 75 1005.9
20260503171506 49 111 7.0 14.0 0.00 0.01 0.01 75 1006.5